SL-14 DEB, 45330

Orbit data source: Space-Track

SL-14 DEB, 45330 is space debris in LEO originally from a launch on Thu, 15 Aug 1991 UTC launched from the Plesetsk Missile And Space Complex (PKMTR). Debris objects in space refer to the collection of defunct objects orbiting the Earth. Examples of debris include non-operational satellites, rocket bodies, and fragments generated from explosions, collisions, or faulty payload assembly.

Loading next visibility...
Identifier
45330, 1991-056BU
Orbit
LEO
Country
Flag of CISCIS
Related business
Manufacturer
Unknown
Mission
Spacecraft
Bus & Motor
Unknown
Mass
Unknown
Launch date (UTC)
1991-08-15 (35 years ago)
Launch vehicle
Unknown
Launch site
Plesetsk Missile And Space Complex (PKMTR)
Object type
Payload
Rocket body
Debris
Shape & HBR
Unknown shape, 0.1 m
Radar Cross Section
Small (<0.1 m²)

Expand to show TLE details & history
Last TLE update: 3 days ago

TLE from 3 days ago
0 SL-14 DEB
1 45330U 91056BU  26165.79898550  .00001005  00000-0  18100-2 0  9995
2 45330  82.5606  87.4918 0070581 230.4011 129.0879 13.39555659308742
Epoch: 2026-06-14T19:10Z
TLE epoch observation values (Epoch: 2026-06-14T19:10:32.347Z)
Latitude
-0.00002°
Longitude
-103.23753°
Altitude
1,147.332 km
Speed
7.263 km/s
True Right ascension
05h 49m 58s
True Declination
0° 00' 00"
Sunlit
Object was in daylight at epoch
Visualization orbit readout
Latitude
Unknown
Longitude
Unknown
Altitude
Unknown
Speed
Unknown
Apparent Right ascension
Unknown
Apparent Declination
Unknown
Sunlit
N/A
Visualization observer readout
Local Sidereal Time
20:07:51
Azimuth
Unknown
Elevation
Unknown
Doppler factor
Unknown
Orbital elements
Apogee altitude
1,160.986 km
Perigee altitude
1,055.309 km
Semi-major axis
7,486.285 km
Eccentricity
0.00706
Inclination
82.5606°
RAAN
87.4918°
Arg. of periapsis
230.4011°
True anomaly
129.71219°
Mean anomaly
129.0879°
Eccentric anomaly
129.40039°
Mean motion
3.35076 °/min
Orbital period
107.44 mins
BSTAR
0.00181
Loading maneuver chart data...
Computing Atmospheric mass density...
Loading historical data...
Loading historical data...
Loading historical data...
Loading historical data...
Loading historical data...
Loading historical data...
Loading historical data...

Documentation

Showing up to 5 results
|